TimeCDT,TemperatureF,Dew PointF,Humidity,Sea Level PressureIn,VisibilityMPH,Wind Direction,Wind SpeedMPH,Gust SpeedMPH,PrecipitationIn,Events,Conditions,WindDirDegrees,DateUTC
12:53 AM,64.0,52.0,65,30.00,10.0,ENE,5.8,-,N/A,,Clear,70,2013-09-15 05:53:00
1:53 AM,64.0,53.1,67,30.01,10.0,East,3.5,-,N/A,,Clear,100,2013-09-15 06:53:00
2:53 AM,63.0,53.1,70,30.02,10.0,East,5.8,-,N/A,,Clear,80,2013-09-15 07:53:00
3:53 AM,63.0,53.1,70,30.01,10.0,East,4.6,-,N/A,,Clear,100,2013-09-15 08:53:00
4:53 AM,62.1,53.1,72,30.02,10.0,East,6.9,-,N/A,,Clear,80,2013-09-15 09:53:00
5:53 AM,62.1,52.0,70,30.03,10.0,East,6.9,-,N/A,,Clear,90,2013-09-15 10:53:00
6:53 AM,61.0,52.0,72,30.04,10.0,East,6.9,-,N/A,,Clear,90,2013-09-15 11:53:00
7:53 AM,63.0,53.1,70,30.06,10.0,East,6.9,-,N/A,,Clear,90,2013-09-15 12:53:00
8:53 AM,66.9,52.0,59,30.06,10.0,East,8.1,-,N/A,,Clear,100,2013-09-15 13:53:00
9:53 AM,71.1,53.1,53,30.07,10.0,East,6.9,-,N/A,,Clear,100,2013-09-15 14:53:00
10:53 AM,75.9,54.0,46,30.07,10.0,NE,4.6,-,N/A,,Clear,50,2013-09-15 15:53:00
11:53 AM,80.1,55.0,42,30.06,10.0,ENE,5.8,-,N/A,,Clear,70,2013-09-15 16:53:00
12:53 PM,82.9,55.9,39,30.04,10.0,NNE,10.4,-,N/A,,Clear,30,2013-09-15 17:53:00
1:53 PM,86.0,57.0,37,30.02,10.0,NNE,9.2,-,N/A,,Clear,30,2013-09-15 18:53:00
2:53 PM,89.1,57.9,35,30.00,9.0,North,4.6,-,N/A,,Clear,360,2013-09-15 19:53:00
3:53 PM,90.0,59.0,35,29.98,10.0,ESE,5.8,-,N/A,,Clear,120,2013-09-15 20:53:00
4:53 PM,93.0,60.1,33,29.97,10.0,Calm,Calm,-,N/A,,Clear,0,2013-09-15 21:53:00
5:53 PM,89.1,61.0,39,29.97,10.0,ENE,9.2,-,N/A,,Clear,70,2013-09-15 22:53:00
6:53 PM,87.1,61.0,41,29.98,10.0,ENE,6.9,-,N/A,,Clear,70,2013-09-15 23:53:00
7:53 PM,82.0,64.9,56,29.99,10.0,East,5.8,-,N/A,,Clear,80,2013-09-16 00:53:00
8:53 PM,81.0,62.1,52,30.00,10.0,Calm,Calm,-,N/A,,Clear,0,2013-09-16 01:53:00
9:53 PM,80.1,62.1,54,30.01,10.0,ENE,3.5,-,N/A,,Clear,60,2013-09-16 02:53:00
10:53 PM,78.1,63.0,60,30.02,10.0,NE,5.8,-,N/A,,Clear,50,2013-09-16 03:53:00
11:53 PM,75.9,64.0,67,30.03,10.0,ENE,4.6,-,N/A,,Clear,60,2013-09-16 04:53:00